Meteo orario Alimkent

Oggi, 20 Ottobre, Martedi

Tempo Temperatura Precipitazioni Vento Pressione Umidità
00:00 +15°C° 0 mm 1 m/s 731 mm Hg 22%
01:00 +14°C° 0 mm 1 m/s 730 mm Hg 23%
02:00 +13°C° 0 mm 1 m/s 730 mm Hg 24%
03:00 +13°C° 0 mm 1 m/s 730 mm Hg 25%
04:00 +13°C° 0 mm 1 m/s 730 mm Hg 26%
05:00 +12°C° 0 mm 1 m/s 730 mm Hg 27%
06:00 +14°C° 0 mm 1 m/s 730 mm Hg 25%
07:00 +15°C° 0 mm 1 m/s 730 mm Hg 22%
08:00 +18°C° 0 mm 1 m/s 731 mm Hg 20%
09:00 +20°C° 0 mm 1 m/s 731 mm Hg 17%
10:00 +23°C° 0 mm 1 m/s 731 mm Hg 14%
11:00 +26°C° 0 mm 2 m/s 731 mm Hg 11%
12:00 +27°C° 0 mm 2 m/s 731 mm Hg 11%
13:00 +28°C° 0 mm 2 m/s 731 mm Hg 10%
14:00 +29°C° 0 mm 2 m/s 731 mm Hg 9%
15:00 +28°C° 0 mm 2 m/s 731 mm Hg 11%
16:00 +27°C° 0 mm 2 m/s 731 mm Hg 12%
17:00 +26°C° 0 mm 2 m/s 731 mm Hg 13%
18:00 +23°C° 0 mm 1 m/s 732 mm Hg 16%
19:00 +21°C° 0 mm 1 m/s 732 mm Hg 18%
20:00 +19°C° 0 mm 1 m/s 732 mm Hg 21%
21:00 +18°C° 0 mm 1 m/s 732 mm Hg 21%
22:00 +18°C° 0 mm 1 m/s 732 mm Hg 21%
23:00 +18°C° 0 mm 1 m/s 732 mm Hg 22%

Domani, 21 Ottobre, Mercoledi

Tempo Temperatura Precipitazioni Vento Pressione Umidità
00:00 +16°C° 0 mm 1 m/s 732 mm Hg 22%
01:00 +16°C° 0 mm 1 m/s 732 mm Hg 22%
02:00 +15°C° 0 mm 1 m/s 732 mm Hg 23%
03:00 +13°C° 0 mm 0 m/s 733 mm Hg 24%
04:00 +13°C° 0 mm 0 m/s 733 mm Hg 26%
05:00 +12°C° 0 mm 0 m/s 733 mm Hg 27%
06:00 +13°C° 0 mm 0 m/s 734 mm Hg 25%
07:00 +15°C° 0 mm 0 m/s 734 mm Hg 23%
08:00 +16°C° 0 mm 0 m/s 734 mm Hg 21%
09:00 +21°C° 0 mm 1 m/s 735 mm Hg 18%
10:00 +23°C° 0 mm 1 m/s 735 mm Hg 15%
11:00 +26°C° 0 mm 1 m/s 735 mm Hg 12%
12:00 +27°C° 0 mm 2 m/s 735 mm Hg 11%
13:00 +28°C° 0 mm 2 m/s 735 mm Hg 11%
14:00 +29°C° 0 mm 2 m/s 734 mm Hg 10%
15:00 +27°C° 0 mm 2 m/s 734 mm Hg 11%
16:00 +26°C° 0 mm 2 m/s 734 mm Hg 11%
17:00 +25°C° 0 mm 2 m/s 734 mm Hg 12%
18:00 +23°C° 0 mm 2 m/s 734 mm Hg 14%
19:00 +20°C° 0 mm 2 m/s 734 mm Hg 16%
20:00 +18°C° 0 mm 2 m/s 734 mm Hg 18%
21:00 +18°C° 0 mm 1 m/s 734 mm Hg 18%
22:00 +18°C° 0 mm 1 m/s 734 mm Hg 18%
23:00 +18°C° 0 mm 1 m/s 734 mm Hg 19%

Dopodomani, 22 Ottobre, Giovedi

Tempo Temperatura Precipitazioni Vento Pressione Umidità
00:00 +16°C° 0 mm 1 m/s 734 mm Hg 20%
01:00 +15°C° 0 mm 1 m/s 734 mm Hg 21%
02:00 +15°C° 0 mm 1 m/s 734 mm Hg 22%
03:00 +13°C° 0 mm 2 m/s 734 mm Hg 25%
04:00 +12°C° 0 mm 2 m/s 734 mm Hg 28%
05:00 +10°C° 0 mm 2 m/s 735 mm Hg 31%
06:00 +12°C° 0 mm 2 m/s 735 mm Hg 35%
07:00 +12°C° 0 mm 2 m/s 735 mm Hg 39%
08:00 +13°C° 0 mm 2 m/s 736 mm Hg 43%
09:00 +14°C° 0 mm 2 m/s 736 mm Hg 42%
10:00 +15°C° 0 mm 2 m/s 736 mm Hg 42%
11:00 +17°C° 0 mm 3 m/s 736 mm Hg 41%
12:00 +18°C° 0 mm 2 m/s 735 mm Hg 39%
13:00 +19°C° 0 mm 2 m/s 735 mm Hg 37%
14:00 +20°C° 0 mm 2 m/s 734 mm Hg 34%
15:00 +19°C° 0 mm 2 m/s 734 mm Hg 35%
16:00 +19°C° 0 mm 3 m/s 734 mm Hg 35%
17:00 +18°C° 0 mm 3 m/s 734 mm Hg 36%
18:00 +17°C° 0 mm 3 m/s 734 mm Hg 38%
19:00 +14°C° 0 mm 3 m/s 734 mm Hg 41%
20:00 +12°C° 0 mm 3 m/s 734 mm Hg 44%
21:00 +12°C° 0 mm 3 m/s 734 mm Hg 43%
22:00 +12°C° 0 mm 2 m/s 734 mm Hg 43%
23:00 +12°C° 0 mm 2 m/s 733 mm Hg 43%

23 Ottobre, Venerdi

Tempo Temperatura Precipitazioni Vento Pressione Umidità
00:00 +12°C° 0 mm 2 m/s 734 mm Hg 42%
01:00 +12°C° 0 mm 2 m/s 734 mm Hg 40%
02:00 +12°C° 0 mm 2 m/s 734 mm Hg 39%
03:00 +10°C° 0.1 mm 2 m/s 734 mm Hg 46%
04:00 +10°C° 0.1 mm 2 m/s 734 mm Hg 54%
05:00 +9°C° 0.1 mm 2 m/s 734 mm Hg 61%
06:00 +9°C° 0.2 mm 2 m/s 735 mm Hg 65%
07:00 +10°C° 0.2 mm 2 m/s 735 mm Hg 68%
08:00 +10°C° 0.2 mm 2 m/s 736 mm Hg 71%
09:00 +12°C° 0 mm 2 m/s 736 mm Hg 62%
10:00 +13°C° 0 mm 2 m/s 736 mm Hg 53%
11:00 +14°C° 0 mm 1 m/s 737 mm Hg 43%
12:00 +15°C° 0 mm 1 m/s 737 mm Hg 40%
13:00 +15°C° 0 mm 1 m/s 737 mm Hg 36%
14:00 +16°C° 0 mm 1 m/s 737 mm Hg 33%
15:00 +16°C° 0 mm 1 m/s 737 mm Hg 33%
16:00 +16°C° 0 mm 2 m/s 737 mm Hg 34%
17:00 +15°C° 0 mm 2 m/s 737 mm Hg 34%
18:00 +14°C° 0 mm 2 m/s 737 mm Hg 38%
19:00 +12°C° 0 mm 2 m/s 738 mm Hg 43%
20:00 +10°C° 0 mm 2 m/s 738 mm Hg 47%
21:00 +10°C° 0 mm 2 m/s 738 mm Hg 48%
22:00 +10°C° 0 mm 1 m/s 738 mm Hg 50%
23:00 +10°C° 0 mm 1 m/s 738 mm Hg 51%

24 Ottobre, Sabato

Tempo Temperatura Precipitazioni Vento Pressione Umidità
00:00 +10°C° 0 mm 1 m/s 738 mm Hg 52%
01:00 +10°C° 0 mm 1 m/s 738 mm Hg 52%
02:00 +9°C° 0 mm 2 m/s 738 mm Hg 52%
03:00 +8°C° 0 mm 2 m/s 738 mm Hg 52%
04:00 +9°C° 0 mm 1 m/s 739 mm Hg 52%
05:00 +9°C° 0 mm 1 m/s 739 mm Hg 52%
06:00 +10°C° 0 mm 1 m/s 739 mm Hg 51%
07:00 +10°C° 0 mm 1 m/s 739 mm Hg 49%
08:00 +10°C° 0 mm 0 m/s 739 mm Hg 47%
09:00 +12°C° 0 mm 1 m/s 739 mm Hg 43%
10:00 +14°C° 0 mm 1 m/s 739 mm Hg 39%
11:00 +16°C° 0 mm 2 m/s 739 mm Hg 35%
12:00 +17°C° 0 mm 2 m/s 739 mm Hg 33%
13:00 +17°C° 0 mm 2 m/s 739 mm Hg 31%
14:00 +18°C° 0 mm 2 m/s 739 mm Hg 29%
15:00 +17°C° 0 mm 2 m/s 739 mm Hg 30%
16:00 +17°C° 0 mm 2 m/s 739 mm Hg 31%
17:00 +16°C° 0 mm 2 m/s 739 mm Hg 32%
18:00 +15°C° 0 mm 2 m/s 739 mm Hg 36%
19:00 +12°C° 0 mm 3 m/s 740 mm Hg 39%
20:00 +11°C° 0 mm 3 m/s 740 mm Hg 43%
21:00 +10°C° 0 mm 3 m/s 740 mm Hg 44%
22:00 +9°C° 0 mm 3 m/s 740 mm Hg 46%
23:00 +9°C° 0 mm 2 m/s 740 mm Hg 47%

25 Ottobre, Domenica

Tempo Temperatura Precipitazioni Vento Pressione Umidità
00:00 +9°C° 0 mm 2 m/s 740 mm Hg 49%
01:00 +9°C° 0 mm 1 m/s 740 mm Hg 50%
02:00 +9°C° 0 mm 1 m/s 740 mm Hg 52%
03:00 +9°C° 0 mm 1 m/s 740 mm Hg 53%
04:00 +8°C° 0 mm 1 m/s 740 mm Hg 54%
05:00 +8°C° 0 mm 1 m/s 740 mm Hg 55%
06:00 +8°C° 0 mm 1 m/s 740 mm Hg 54%
07:00 +9°C° 0 mm 1 m/s 740 mm Hg 52%
08:00 +9°C° 0 mm 1 m/s 740 mm Hg 50%
09:00 +12°C° 0 mm 1 m/s 740 mm Hg 43%
10:00 +14°C° 0 mm 1 m/s 740 mm Hg 37%
11:00 +18°C° 0 mm 1 m/s 740 mm Hg 30%
12:00 +19°C° 0 mm 1 m/s 739 mm Hg 27%
13:00 +19°C° 0 mm 2 m/s 739 mm Hg 24%
14:00 +21°C° 0 mm 2 m/s 739 mm Hg 22%
15:00 +20°C° 0 mm 2 m/s 739 mm Hg 22%
16:00 +19°C° 0 mm 2 m/s 738 mm Hg 23%
17:00 +18°C° 0 mm 2 m/s 738 mm Hg 23%
18:00 +16°C° 0 mm 2 m/s 738 mm Hg 26%
19:00 +15°C° 0 mm 2 m/s 738 mm Hg 30%
20:00 +13°C° 0 mm 2 m/s 738 mm Hg 33%
21:00 +13°C° 0 mm 2 m/s 738 mm Hg 34%
22:00 +12°C° 0 mm 2 m/s 737 mm Hg 35%
23:00 +12°C° 0 mm 2 m/s 737 mm Hg 36%

26 Ottobre, Lunedi

Tempo Temperatura Precipitazioni Vento Pressione Umidità
00:00 +12°C° 0 mm 1 m/s 737 mm Hg 36%
01:00 +11°C° 0 mm 1 m/s 737 mm Hg 36%
02:00 +11°C° 0 mm 1 m/s 737 mm Hg 37%
03:00 +11°C° 0 mm 1 m/s 736 mm Hg 37%
04:00 +10°C° 0 mm 1 m/s 736 mm Hg 37%
05:00 +10°C° 0 mm 1 m/s 736 mm Hg 38%
06:00 +10°C° 0 mm 0 m/s 736 mm Hg 35%
07:00 +11°C° 0 mm 0 m/s 736 mm Hg 33%
08:00 +11°C° 0 mm 0 m/s 736 mm Hg 31%
09:00 +14°C° 0 mm 0 m/s 736 mm Hg 26%
10:00 +19°C° 0 mm 1 m/s 736 mm Hg 22%
11:00 +21°C° 0 mm 1 m/s 736 mm Hg 17%
12:00 +23°C° 0 mm 1 m/s 735 mm Hg 15%
13:00 +24°C° 0 mm 1 m/s 735 mm Hg 13%
14:00 +25°C° 0 mm 2 m/s 735 mm Hg 11%
15:00 +24°C° 0 mm 1 m/s 735 mm Hg 11%
16:00 +23°C° 0 mm 1 m/s 734 mm Hg 12%
17:00 +21°C° 0 mm 1 m/s 734 mm Hg 12%
18:00 +20°C° 0 mm 1 m/s 734 mm Hg 14%
19:00 +18°C° 0 mm 1 m/s 733 mm Hg 15%
20:00 +16°C° 0 mm 1 m/s 733 mm Hg 17%
21:00 +15°C° 0 mm 1 m/s 733 mm Hg 18%
22:00 +15°C° 0 mm 1 m/s 733 mm Hg 20%
23:00 +14°C° 0 mm 1 m/s 732 mm Hg 21%
Mostrare altro

Abbiamo bisogno del tuo consenso

Meteoprog e i nostri fornitori di servizi possono memorizzare e accedere a dati personali come cookie, identificatori di dispositivi o altre tecnologie simili sul tuo dispositivo e possono elaborare tali dati per personalizzare i contenuti e gli annunci, nonché fornire funzionalità dei social media e analizzarne il traffico.

  • Archiviare e/o accedere alle informazioni sul tuo dispositivo

    Cookie, identificatori di dispositivi o altre informazioni possono essere memorizzati o resi accessibili sul tuo dispositivo per le finalità sopra indicate.

  • Annunci e contenuti personalizzati, misurazione di annunci e contenuti, approfondimenti sul pubblico e sviluppo di prodotti

    Gli annunci e i contenuti possono essere personalizzati in base a un profilo. È possibile aggiungere più dati per personalizzare meglio annunci e contenuti. È possibile misurare il rendimento degli annunci e dei contenuti. È possibile ricavare informazioni sul pubblico che ha visto gli annunci e i contenuti. Tali dati possono essere utilizzati per sviluppare o migliorare l'esperienza, i sistemi e il software dell'utente.

Cliccando su “Accetto”, acconsenti all'uso di cookie, identificatori di dispositivo, web beacon o altre tecnologie simili. Puoi modificare le impostazioni nel browser del tuo dispositivo.

Per determinati scopi, è possibile fare affidamento su interessi legali, piuttosto che sul consenso. Puoi approfondire questo argomento consultando la nostra Informativa sulla privacy e sui cookie.